EW8311 Weather Reports


time (UTC)temp
F
wind
direction
speed
knots
gust
knots
rain 1hr
in
rain 24hr
in
rain mn
in
humidity
%
barometer
mb
20260906111510 79 108 0.0 0.0 0.00 0.00 0.00 52 1004.5
20260906110009 79 108 0.0 0.0 0.00 0.00 0.00 55 1004.3
20260906104509 79 134 0.0 1.7 0.00 0.00 0.00 51 1004.4
20260906103013 79 99 0.0 0.0 0.00 0.00 0.00 52 1004.4
20260906101507 78 335 0.0 0.0 0.00 0.00 0.00 55 1004.3
20260906100007 78 329 0.0 0.0 0.00 0.00 0.00 53 1004.2
20260906094506 78 329 0.0 0.0 0.00 0.00 0.00 53 1004.2
20260906093006 78 329 0.0 2.6 0.00 0.00 0.00 54 1004.1
20260906091505 77 7 0.0 0.9 0.00 0.00 0.00 57 1004.2
20260906090003 77 110 0.0 0.0 0.00 0.00 0.00 57 1004.2
20260906084504 78 118 0.0 0.0 0.00 0.00 0.00 57 1004.2
20260906083104 78 118 0.0 0.0 0.00 0.00 0.00 56 1004.2
20260906081557 78 118 0.0 0.0 0.00 0.00 0.00 55 1004.4
20260906080056 79 118 0.0 0.0 0.00 0.00 0.00 55 1004.3
20260906074554 79 118 0.0 0.0 0.00 0.00 0.00 54 1004.5
20260906073051 79 118 0.0 0.0 0.00 0.00 0.00 51 1004.7
20260906071549 80 118 0.0 0.0 0.00 0.00 0.00 51 1004.8
20260906070045 80 118 0.0 0.0 0.00 0.00 0.00 52 1004.9
20260906064545 82 118 0.0 0.0 0.00 0.00 0.00 47 1004.7
20260906063044 84 118 0.0 1.7 0.00 0.00 0.00 44 1004.7
20260906061548 85 97 0.0 0.9 0.00 0.00 0.00 41 1004.7
20260906060053 84 314 0.0 1.7 0.00 0.00 0.00 43 1004.8
20260906054546 83 328 0.0 0.0 0.00 0.00 0.00 45 1004.8
20260906053042 84 110 0.0 0.0 0.00 0.00 0.00 45 1004.9
20260906051541 86 101 0.0 1.7 0.00 0.00 0.00 40 1005.0
20260906050040 86 103 0.0 0.0 0.00 0.00 0.00 40 1005.0
20260906044540 87 322 0.0 2.6 0.00 0.00 0.00 39 1004.9
20260906043038 87 299 0.0 2.6 0.00 0.00 0.00 39 1005.0
20260906041538 87 332 0.0 1.7 0.00 0.00 0.00 39 1005.0
20260906040037 87 316 0.0 1.7 0.00 0.00 0.00 39 1005.0
20260906034552 88 101 0.0 0.0 0.00 0.00 0.00 38 1004.9
20260906033040 88 101 0.0 2.6 0.00 0.00 0.00 36 1004.6
20260906031537 89 271 0.0 2.6 0.00 0.00 0.00 36 1004.4
20260906030036 89 309 2.6 5.2 0.00 0.00 0.00 36 1004.1
20260906024539 89 333 1.7 5.2 0.00 0.00 0.00 36 1003.9
20260906023034 89 315 0.0 2.6 0.00 0.00 0.00 37 1003.9
20260906021540 89 302 0.0 2.6 0.00 0.00 0.00 36 1003.6
20260906020033 90 306 0.9 2.6 0.00 0.00 0.00 36 1003.6
20260906014533 91 319 0.0 4.3 0.00 0.00 0.00 35 1003.6
20260906013032 91 329 0.9 5.2 0.00 0.00 0.00 34 1003.5
20260906011532 92 325 1.7 7.0 0.00 0.00 0.00 34 1003.5
20260906010034 93 319 2.6 7.0 0.00 0.00 0.00 33 1003.5
20260906004531 94 316 3.5 8.7 0.00 0.00 0.00 33 1003.4
20260906003030 95 314 6.1 8.7 0.00 0.00 0.00 31 1003.4
20260906001545 95 335 3.5 10.4 0.00 0.00 0.00 31 1003.4
20260906000029 95 311 4.3 11.3 0.00 0.00 0.00 31 1003.3
20260905234529 95 327 3.5 9.6 0.00 0.00 0.00 31 1003.2
20260905233028 95 338 5.2 10.4 0.00 0.00 0.00 31 1003.2
20260905231528 95 303 5.2 14.8 0.00 0.00 0.00 31 1003.3
20260905230033 96 252 4.3 12.2 0.00 0.00 0.00 31 1003.4
20260905224525 96 311 6.1 12.2 0.00 0.00 0.00 30 1003.5
20260905223039 96 270 4.3 11.3 0.00 0.00 0.00 32 1003.6
20260905221523 96 290 1.7 7.8 0.00 0.00 0.00 32 1003.8
20260905220019 96 228 2.6 9.6 0.00 0.00 0.00 31 1003.9
20260905214517 96 326 3.5 7.0 0.00 0.00 0.00 32 1004.2
20260905213015 95 318 4.3 11.3 0.00 0.00 0.00 32 1004.5
20260905211514 96 319 1.7 8.7 0.00 0.00 0.00 32 1004.6
20260905210011 95 323 2.6 7.0 0.00 0.00 0.00 33 1004.9
20260905204508 95 278 2.6 7.0 0.00 0.00 0.00 34 1005.1
20260905203006 95 318 4.3 8.7 0.00 0.00 0.00 33 1005.3
20260905201504 95 304 2.6 9.6 0.00 0.00 0.00 33 1005.5
20260905200002 94 321 0.9 8.7 0.00 0.00 0.00 35 1005.7
20260905194600 93 303 3.5 6.1 0.00 0.00 0.00 35 1006.0
20260905193057 94 288 2.6 5.2 0.00 0.00 0.00 36 1006.2
20260905191555 93 263 2.6 7.0 0.00 0.00 0.00 36 1006.4
20260905190053 92 266 0.9 8.7 0.00 0.00 0.00 37 1006.7
20260905184557 92 285 0.9 5.2 0.00 0.00 0.00 38 1006.9
20260905183048 91 331 1.7 5.2 0.00 0.00 0.00 39 1007.1
20260905181548 91 321 2.6 6.1 0.00 0.00 0.00 39 1007.3
20260905180044 89 285 0.9 4.3 0.00 0.00 0.00 40 1007.4
20260905174543 89 348 2.6 6.1 0.00 0.00 0.00 39 1007.4
20260905173141 89 352 1.7 5.2 0.00 0.00 0.00 41 1007.6
20260905171538 87 250 0.0 3.5 0.00 0.00 0.00 44 1007.6
20260905170036 86 267 1.7 4.3 0.00 0.00 0.00 46 1007.8
20260905164533 86 270 0.0 1.7 0.00 0.00 0.00 48 1007.8
20260905163029 84 323 1.7 2.6 0.00 0.00 0.00 50 1007.8
20260905161527 84 278 0.0 1.7 0.00 0.00 0.00 52 1007.8
20260905160025 83 305 0.0 1.7 0.00 0.00 0.00 53 1007.8
20260905154523 82 319 0.9 2.6 0.00 0.00 0.00 55 1007.8
20260905153026 81 251 0.0 0.9 0.00 0.00 0.00 59 1007.9
20260905151515 80 310 0.0 0.9 0.00 0.00 0.00 61 1007.8
20260905150019 78 259 0.0 0.9 0.00 0.00 0.00 64 1007.8
20260905144515 77 342 0.0 0.0 0.00 0.00 0.00 68 1007.9
20260905143017 76 342 0.0 0.9 0.00 0.00 0.00 69 1007.9
20260905141513 75 24 0.0 0.0 0.00 0.00 0.00 70 1007.7
20260905140009 75 24 0.0 0.0 0.00 0.00 0.00 71 1007.6
20260905134516 74 24 0.0 0.0 0.00 0.00 0.00 73 1007.2
20260905133003 72 22 0.0 0.0 0.00 0.00 0.00 72 1006.9
20260905131502 72 22 0.0 0.0 0.00 0.00 0.00 73 1006.8
20260905130100 73 22 0.0 0.0 0.00 0.00 0.00 71 1006.6
20260905124559 74 22 0.0 0.0 0.00 0.00 0.00 71 1006.6
20260905123111 73 22 0.0 0.0 0.00 0.00 0.00 72 1006.4
20260905121558 73 22 0.0 0.9 0.00 0.00 0.00 72 1006.3
20260905120057 73 23 0.0 0.0 0.00 0.00 0.00 71 1006.3
20260905114558 73 69 0.0 0.0 0.00 0.00 0.00 73 1006.2
20260905113100 73 69 0.0 0.0 0.00 0.00 0.00 71 1006.2